Time,TemperatureF,DewpointF,PressureIn,WindDirection,WindDirectionDegrees,WindSpeedMPH,WindSpeedGustMPH,Humidity,HourlyPrecipIn,Conditions,Clouds,dailyrainin,SoftwareType,DateUTC
2013-01-10 00:00:00,58.3,52.1,30.57,West,270,0.0,0.0,80,0.00,CLR,,0.00,WeatherDisplay:10.37,2013-01-10 05:00:00,
2013-01-10 00:01:00,58.3,52.1,30.57,West,270,0.0,0.0,80,0.00,CLR,,0.00,WeatherDisplay:10.37,2013-01-10 05:01:00,
2013-01-10 00:03:00,58.3,52.1,30.57,WSW,248,0.0,0.0,80,0.00,CLR,,0.00,WeatherDisplay:10.37,2013-01-10 05:03:00,
2013-01-10 00:08:00,58.3,52.1,30.56,WSW,248,0.0,0.0,80,0.00,CLR,,0.00,WeatherDisplay:10.37,2013-01-10 05:08:00,
2013-01-10 00:13:00,58.3,52.1,30.56,WSW,248,0.0,0.0,80,0.00,CLR,,0.00,WeatherDisplay:10.37,2013-01-10 05:13:00,
2013-01-10 00:18:00,58.1,52.0,30.56,WSW,248,0.0,0.0,80,0.00,CLR,,0.00,WeatherDisplay:10.37,2013-01-10 05:18:00,
2013-01-10 00:23:00,58.1,52.0,30.56,WSW,248,0.0,0.0,80,0.00,CLR,,0.00,WeatherDisplay:10.37,2013-01-10 05:23:00,
2013-01-10 00:28:00,57.9,51.8,30.56,WSW,248,0.0,0.0,80,0.00,CLR,,0.00,WeatherDisplay:10.37,2013-01-10 05:28:00,
2013-01-10 00:33:00,57.9,51.8,30.57,WSW,248,0.0,0.0,80,0.00,CLR,,0.00,WeatherDisplay:10.37,2013-01-10 05:33:00,
2013-01-10 00:38:00,57.9,51.8,30.56,WSW,248,0.0,0.0,80,0.00,CLR,,0.00,WeatherDisplay:10.37,2013-01-10 05:38:00,
2013-01-10 00:43:00,57.7,51.6,30.56,WSW,248,0.0,0.0,80,0.00,CLR,,0.00,WeatherDisplay:10.37,2013-01-10 05:43:00,
2013-01-10 00:48:00,57.7,51.9,30.56,NW,315,0.0,0.0,81,0.00,CLR,,0.00,WeatherDisplay:10.37,2013-01-10 05:48:00,
2013-01-10 00:53:00,57.7,51.9,30.56,NW,315,0.0,0.0,81,0.00,CLR,,0.00,WeatherDisplay:10.37,2013-01-10 05:53:00,
2013-01-10 00:58:00,57.6,51.8,30.56,WSW,248,0.0,0.0,81,0.00,CLR,,0.00,WeatherDisplay:10.37,2013-01-10 05:58:00,
2013-01-10 01:03:00,57.6,51.8,30.56,WSW,248,0.0,0.0,81,0.00,CLR,,0.00,WeatherDisplay:10.37,2013-01-10 06:03:00,
2013-01-10 01:08:00,57.6,51.8,30.56,WSW,248,0.0,0.0,81,0.00,CLR,,0.00,WeatherDisplay:10.37,2013-01-10 06:08:00,
2013-01-10 01:13:00,57.6,51.8,30.56,WSW,248,0.0,0.0,81,0.00,CLR,,0.00,WeatherDisplay:10.37,2013-01-10 06:13:00,
2013-01-10 01:18:00,57.4,51.6,30.57,WSW,248,0.0,0.0,81,0.00,CLR,,0.00,WeatherDisplay:10.37,2013-01-10 06:18:00,
2013-01-10 01:23:00,57.4,51.6,30.57,WSW,248,0.0,0.0,81,0.00,CLR,,0.00,WeatherDisplay:10.37,2013-01-10 06:23:00,
2013-01-10 01:28:00,57.4,51.6,30.57,WSW,248,0.0,0.0,81,0.00,CLR,,0.00,WeatherDisplay:10.37,2013-01-10 06:28:00,
2013-01-10 01:33:00,57.4,51.6,30.57,WSW,248,0.0,0.0,81,0.00,CLR,,0.00,WeatherDisplay:10.37,2013-01-10 06:33:00,
2013-01-10 01:38:00,57.4,51.6,30.57,NNW,338,0.0,0.0,81,0.00,CLR,,0.00,WeatherDisplay:10.37,2013-01-10 06:38:00,
2013-01-10 01:43:00,57.2,51.4,30.58,NNW,338,0.0,0.0,81,0.00,CLR,,0.00,WeatherDisplay:10.37,2013-01-10 06:43:00,
2013-01-10 01:48:00,57.2,51.8,30.58,NW,315,0.0,0.0,82,0.00,CLR,,0.00,WeatherDisplay:10.37,2013-01-10 06:48:00,
2013-01-10 01:53:00,57.2,51.8,30.58,WSW,248,0.0,0.0,82,0.00,CLR,,0.00,WeatherDisplay:10.37,2013-01-10 06:53:00,
2013-01-10 01:58:00,57.2,51.8,30.58,SSW,202,0.0,0.0,82,0.00,CLR,,0.00,WeatherDisplay:10.37,2013-01-10 06:58:00,
2013-01-10 02:03:00,57.2,51.8,30.58,SSW,202,0.0,0.0,82,0.00,CLR,,0.00,WeatherDisplay:10.37,2013-01-10 07:03:00,
2013-01-10 02:08:00,57.2,51.8,30.58,North,0,1.1,1.1,82,0.00,CLR,,0.00,WeatherDisplay:10.37,2013-01-10 07:08:00,
2013-01-10 02:13:00,57.2,52.1,30.57,North,0,0.0,0.0,83,0.00,CLR,,0.00,WeatherDisplay:10.37,2013-01-10 07:13:00,
2013-01-10 02:18:00,57.0,51.9,30.57,North,0,0.0,0.0,83,0.00,CLR,,0.00,WeatherDisplay:10.37,2013-01-10 07:18:00,
2013-01-10 02:23:00,57.0,51.9,30.58,North,0,0.0,0.0,83,0.00,CLR,,0.00,WeatherDisplay:10.37,2013-01-10 07:23:00,
2013-01-10 02:28:00,57.0,51.9,30.58,North,0,0.0,0.0,83,0.00,CLR,,0.00,WeatherDisplay:10.37,2013-01-10 07:28:00,
2013-01-10 02:33:00,57.2,52.1,30.58,North,0,0.0,0.0,83,0.00,CLR,,0.00,WeatherDisplay:10.37,2013-01-10 07:33:00,
2013-01-10 02:38:00,57.0,51.6,30.58,North,0,0.0,0.0,82,0.00,CLR,,0.00,WeatherDisplay:10.37,2013-01-10 07:38:00,
2013-01-10 02:43:00,57.0,51.6,30.58,NNW,338,0.0,0.0,82,0.00,CLR,,0.00,WeatherDisplay:10.37,2013-01-10 07:43:00,
2013-01-10 02:48:00,57.0,51.6,30.58,NNW,338,0.0,0.0,82,0.00,CLR,,0.00,WeatherDisplay:10.37,2013-01-10 07:48:00,
2013-01-10 02:53:00,56.8,51.4,30.58,NNW,338,0.0,0.0,82,0.00,FEW,,0.00,WeatherDisplay:10.37,2013-01-10 07:53:00,
2013-01-10 02:58:00,56.8,51.4,30.58,NNW,338,0.0,0.0,82,0.00,FEW,,0.00,WeatherDisplay:10.37,2013-01-10 07:58:00,
2013-01-10 03:03:00,56.8,51.7,30.58,NNW,338,0.0,0.0,83,0.00,BKN,,0.00,WeatherDisplay:10.37,2013-01-10 08:03:00,
2013-01-10 03:08:00,56.8,51.7,30.58,NNW,338,0.0,0.0,83,0.00,BKN,,0.00,WeatherDisplay:10.37,2013-01-10 08:08:00,
2013-01-10 03:13:00,56.8,51.7,30.58,NNW,338,0.0,0.0,83,0.00,BKN,,0.00,WeatherDisplay:10.37,2013-01-10 08:13:00,
2013-01-10 03:18:00,56.8,51.7,30.57,NNW,338,0.0,0.0,83,0.00,BKN,,0.00,WeatherDisplay:10.37,2013-01-10 08:18:00,
2013-01-10 03:23:00,56.7,51.6,30.57,NNW,338,0.0,0.0,83,0.00,SCT,,0.00,WeatherDisplay:10.37,2013-01-10 08:23:00,
2013-01-10 03:28:00,56.7,51.6,30.57,NNW,338,0.0,0.0,83,0.00,SCT,,0.00,WeatherDisplay:10.37,2013-01-10 08:28:00,
2013-01-10 03:33:00,56.5,51.4,30.57,NNW,338,0.0,0.0,83,0.00,SCT,,0.00,WeatherDisplay:10.37,2013-01-10 08:33:00,
2013-01-10 03:38:00,56.5,51.1,30.57,NNW,338,0.0,0.0,82,0.00,SCT,,0.00,WeatherDisplay:10.37,2013-01-10 08:38:00,
2013-01-10 03:43:00,56.3,50.9,30.57,NNW,338,0.0,0.0,82,0.00,SCT,,0.00,WeatherDisplay:10.37,2013-01-10 08:43:00,
2013-01-10 03:48:00,56.3,50.9,30.57,NNW,338,0.0,0.0,82,0.00,SCT,,0.00,WeatherDisplay:10.37,2013-01-10 08:48:00,
2013-01-10 03:53:00,56.1,50.7,30.57,NNW,338,0.0,0.0,82,0.00,SCT,,0.00,WeatherDisplay:10.37,2013-01-10 08:53:00,
2013-01-10 03:58:00,55.9,50.2,30.57,NNW,338,0.0,0.0,81,0.00,SCT,,0.00,WeatherDisplay:10.37,2013-01-10 08:58:00,
2013-01-10 04:03:00,55.8,50.0,30.57,NNW,338,0.0,0.0,81,0.00,CLR,,0.00,WeatherDisplay:10.37,2013-01-10 09:03:00,
2013-01-10 04:08:00,55.8,50.3,30.57,NNW,338,0.0,0.0,82,0.00,CLR,,0.00,WeatherDisplay:10.37,2013-01-10 09:08:00,
2013-01-10 04:13:00,55.6,50.2,30.57,NNW,338,0.0,0.0,82,0.00,CLR,,0.00,WeatherDisplay:10.37,2013-01-10 09:13:00,
2013-01-10 04:18:00,55.6,50.2,30.57,NNW,338,0.0,0.0,82,0.00,CLR,,0.00,WeatherDisplay:10.37,2013-01-10 09:18:00,
2013-01-10 04:23:00,55.6,50.2,30.57,NNW,338,0.0,0.0,82,0.00,FEW,,0.00,WeatherDisplay:10.37,2013-01-10 09:23:00,
2013-01-10 04:28:00,55.4,50.0,30.57,NNW,338,0.0,0.0,82,0.00,FEW,,0.00,WeatherDisplay:10.37,2013-01-10 09:28:00,
2013-01-10 04:33:00,55.4,50.0,30.57,NNW,338,0.0,0.0,82,0.00,FEW,,0.00,WeatherDisplay:10.37,2013-01-10 09:33:00,
2013-01-10 04:38:00,55.4,50.0,30.57,NNW,338,0.0,0.0,82,0.00,FEW,,0.00,WeatherDisplay:10.37,2013-01-10 09:38:00,
2013-01-10 04:43:00,55.2,49.8,30.57,NNW,338,0.0,0.0,82,0.00,FEW,,0.00,WeatherDisplay:10.37,2013-01-10 09:43:00,
2013-01-10 04:48:00,55.2,49.8,30.57,NNW,338,1.1,0.0,82,0.00,FEW,,0.00,WeatherDisplay:10.37,2013-01-10 09:48:00,
2013-01-10 04:53:00,55.0,49.6,30.57,NNW,338,0.0,0.0,82,0.00,FEW,,0.00,WeatherDisplay:10.37,2013-01-10 09:53:00,
2013-01-10 04:58:00,55.0,49.6,30.57,NNW,338,0.0,0.0,82,0.00,FEW,,0.00,WeatherDisplay:10.37,2013-01-10 09:58:00,
2013-01-10 05:03:00,54.9,49.5,30.57,NNW,338,0.7,0.7,82,0.00,CLR,,0.00,WeatherDisplay:10.37,2013-01-10 10:03:00,
2013-01-10 05:08:00,54.7,49.3,30.57,NNW,338,0.0,0.0,82,0.00,CLR,,0.00,WeatherDisplay:10.37,2013-01-10 10:08:00,
2013-01-10 05:13:00,54.7,49.3,30.57,NNW,338,0.0,0.0,82,0.00,CLR,,0.00,WeatherDisplay:10.37,2013-01-10 10:13:00,
2013-01-10 05:18:00,54.7,49.3,30.57,NNW,338,0.0,0.0,82,0.00,CLR,,0.00,WeatherDisplay:10.37,2013-01-10 10:18:00,
2013-01-10 05:23:00,54.5,49.1,30.58,NNW,338,0.0,0.0,82,0.00,,,0.00,WeatherDisplay:10.37,2013-01-10 10:23:00,
2013-01-10 05:28:00,54.5,49.1,30.58,NNW,338,0.0,0.0,82,0.00,,,0.00,WeatherDisplay:10.37,2013-01-10 10:28:00,
2013-01-10 05:33:00,54.3,48.9,30.58,NNW,338,0.0,0.0,82,0.00,SCT,,0.00,WeatherDisplay:10.37,2013-01-10 10:33:00,
2013-01-10 05:38:00,54.3,48.9,30.58,NNW,338,0.0,0.0,82,0.00,SCT,,0.00,WeatherDisplay:10.37,2013-01-10 10:38:00,
2013-01-10 05:43:00,54.3,49.3,30.58,NNW,338,0.0,0.0,83,0.00,SCT,,0.00,WeatherDisplay:10.37,2013-01-10 10:43:00,
2013-01-10 05:48:00,54.3,49.6,30.58,North,0,0.7,0.7,84,0.00,SCT,,0.00,WeatherDisplay:10.37,2013-01-10 10:48:00,
2013-01-10 05:53:00,54.3,49.9,30.58,North,0,1.8,1.8,85,0.00,SCT,,0.00,WeatherDisplay:10.37,2013-01-10 10:53:00,
2013-01-10 05:58:00,54.5,50.4,30.58,North,0,2.3,2.3,86,0.00,SCT,,0.00,WeatherDisplay:10.37,2013-01-10 10:58:00,
2013-01-10 06:03:00,54.7,50.9,30.58,NNW,338,2.6,2.6,87,0.00,CLR,,0.00,WeatherDisplay:10.37,2013-01-10 11:03:00,
2013-01-10 06:08:00,55.0,51.5,30.59,North,0,3.3,3.3,88,0.00,CLR,,0.00,WeatherDisplay:10.37,2013-01-10 11:08:00,
2013-01-10 06:13:00,55.0,51.9,30.59,NNE,22,4.6,4.6,89,0.00,CLR,,0.00,WeatherDisplay:10.37,2013-01-10 11:13:00,
2013-01-10 06:18:00,55.2,52.0,30.59,NNE,22,4.6,4.6,89,0.00,CLR,,0.00,WeatherDisplay:10.37,2013-01-10 11:18:00,
2013-01-10 06:23:00,55.4,51.9,30.59,North,0,3.5,3.5,88,0.00,CLR,,0.00,WeatherDisplay:10.37,2013-01-10 11:23:00,
2013-01-10 06:28:00,55.4,51.9,30.59,NNW,338,2.3,2.3,88,0.00,CLR,,0.00,WeatherDisplay:10.37,2013-01-10 11:28:00,
2013-01-10 06:33:00,55.4,51.9,30.59,North,0,1.8,1.8,88,0.00,CLR,,0.00,WeatherDisplay:10.37,2013-01-10 11:33:00,
2013-01-10 06:38:00,55.4,51.6,30.59,NNE,22,1.6,1.6,87,0.00,CLR,,0.00,WeatherDisplay:10.37,2013-01-10 11:38:00,
2013-01-10 06:43:00,55.4,51.6,30.60,NNW,338,1.1,1.1,87,0.00,CLR,,0.00,WeatherDisplay:10.37,2013-01-10 11:43:00,
2013-01-10 06:48:00,55.4,51.6,30.60,NNW,338,2.3,2.3,87,0.00,CLR,,0.00,WeatherDisplay:10.37,2013-01-10 11:48:00,
2013-01-10 06:53:00,55.4,51.6,30.60,NNW,338,1.1,1.1,87,0.00,CLR,,0.00,WeatherDisplay:10.37,2013-01-10 11:53:00,
2013-01-10 06:59:00,55.4,51.9,30.60,NNE,22,1.1,1.1,88,0.00,CLR,,0.00,WeatherDisplay:10.37,2013-01-10 11:59:00,
2013-01-10 07:04:00,55.4,51.9,30.60,North,0,3.5,3.5,88,0.00,CLR,,0.00,WeatherDisplay:10.37,2013-01-10 12:04:00,
2013-01-10 07:09:00,55.4,51.9,30.60,NNE,22,1.1,1.1,88,0.00,CLR,,0.00,WeatherDisplay:10.37,2013-01-10 12:09:00,
2013-01-10 07:14:00,55.4,51.9,30.61,NE,45,0.7,0.7,88,0.00,CLR,,0.00,WeatherDisplay:10.37,2013-01-10 12:14:00,
2013-01-10 07:19:00,55.2,51.4,30.61,North,0,0.0,0.0,87,0.00,CLR,,0.00,WeatherDisplay:10.37,2013-01-10 12:19:00,
2013-01-10 07:24:00,55.2,51.4,30.61,NNW,338,0.5,0.5,87,0.00,CLR,,0.00,WeatherDisplay:10.37,2013-01-10 12:24:00,
2013-01-10 07:29:00,55.2,51.4,30.61,NNE,22,1.6,1.6,87,0.00,CLR,,0.00,WeatherDisplay:10.37,2013-01-10 12:29:00,
2013-01-10 07:34:00,55.0,51.2,30.62,North,0,1.1,1.1,87,0.00,CLR,,0.00,WeatherDisplay:10.37,2013-01-10 12:34:00,
2013-01-10 07:39:00,55.0,51.2,30.62,NNE,22,2.3,2.3,87,0.00,CLR,,0.00,WeatherDisplay:10.37,2013-01-10 12:39:00,
2013-01-10 07:44:00,55.0,51.2,30.63,North,0,3.5,3.5,87,0.00,CLR,,0.00,WeatherDisplay:10.37,2013-01-10 12:44:00,
2013-01-10 07:49:00,55.0,51.2,30.63,North,0,4.6,4.6,87,0.00,CLR,,0.00,WeatherDisplay:10.37,2013-01-10 12:49:00,
2013-01-10 07:54:00,55.2,51.4,30.63,North,0,3.5,3.5,87,0.00,CLR,,0.00,WeatherDisplay:10.37,2013-01-10 12:54:00,
2013-01-10 07:59:00,55.2,51.4,30.63,NNW,338,3.5,3.5,87,0.00,CLR,,0.00,WeatherDisplay:10.37,2013-01-10 12:59:00,
2013-01-10 08:04:00,55.2,51.4,30.64,North,0,4.6,4.6,87,0.00,CLR,,0.00,WeatherDisplay:10.37,2013-01-10 13:04:00,
2013-01-10 08:09:00,55.6,51.8,30.64,NNW,338,6.9,6.9,87,0.00,CLR,,0.00,WeatherDisplay:10.37,2013-01-10 13:09:00,
2013-01-10 08:14:00,55.8,51.6,30.65,North,0,5.8,5.8,86,0.00,CLR,,0.00,WeatherDisplay:10.37,2013-01-10 13:14:00,
2013-01-10 08:19:00,55.9,51.8,30.65,North,0,4.6,4.6,86,0.00,CLR,,0.00,WeatherDisplay:10.37,2013-01-10 13:19:00,
2013-01-10 08:24:00,56.1,52.0,30.65,NE,45,4.0,4.0,86,0.00,CLR,,0.00,WeatherDisplay:10.37,2013-01-10 13:24:00,
2013-01-10 08:29:00,56.3,51.8,30.65,NNW,338,5.2,5.2,85,0.00,CLR,,0.00,WeatherDisplay:10.37,2013-01-10 13:29:00,
2013-01-10 08:34:00,56.7,51.9,30.65,NNE,22,6.9,6.9,84,0.00,CLR,,0.00,WeatherDisplay:10.37,2013-01-10 13:34:00,
2013-01-10 08:39:00,56.8,52.1,30.65,North,0,3.5,3.5,84,0.00,CLR,,0.00,WeatherDisplay:10.37,2013-01-10 13:39:00,
2013-01-10 08:44:00,57.0,52.2,30.65,NNE,22,6.9,6.9,84,0.00,CLR,,0.00,WeatherDisplay:10.37,2013-01-10 13:44:00,
2013-01-10 08:49:00,57.4,52.3,30.65,NNE,22,9.2,9.2,83,0.00,CLR,,0.00,WeatherDisplay:10.37,2013-01-10 13:49:00,
2013-01-10 08:54:00,57.7,52.3,30.65,NNE,22,5.8,5.8,82,0.00,CLR,,0.00,WeatherDisplay:10.37,2013-01-10 13:54:00,
2013-01-10 08:59:00,57.9,51.8,30.65,NNE,22,9.2,9.2,80,0.00,CLR,,0.00,WeatherDisplay:10.37,2013-01-10 13:59:00,
2013-01-10 09:04:00,58.5,52.3,30.65,NE,45,6.9,6.9,80,0.00,CLR,,0.00,WeatherDisplay:10.37,2013-01-10 14:04:00,
2013-01-10 09:09:00,58.6,52.1,30.65,NNE,22,8.1,8.1,79,0.00,CLR,,0.00,WeatherDisplay:10.37,2013-01-10 14:09:00,
2013-01-10 09:14:00,59.0,52.1,30.65,NE,45,9.2,9.2,78,0.00,CLR,,0.00,WeatherDisplay:10.37,2013-01-10 14:14:00,
2013-01-10 09:19:00,59.4,52.1,30.65,North,0,7.1,7.1,77,0.00,CLR,,0.00,WeatherDisplay:10.37,2013-01-10 14:19:00,
2013-01-10 09:24:00,59.9,52.7,30.65,NE,45,6.0,6.0,77,0.00,CLR,,0.00,WeatherDisplay:10.37,2013-01-10 14:24:00,
2013-01-10 09:29:00,60.3,52.3,30.65,ENE,68,8.1,8.1,75,0.00,CLR,,0.00,WeatherDisplay:10.37,2013-01-10 14:29:00,
2013-01-10 09:34:00,60.6,51.9,30.65,North,0,6.9,6.9,73,0.00,CLR,,0.00,WeatherDisplay:10.37,2013-01-10 14:34:00,
2013-01-10 09:39:00,61.0,52.6,30.65,East,90,4.6,5.2,74,0.00,CLR,,0.00,WeatherDisplay:10.37,2013-01-10 14:39:00,
2013-01-10 09:44:00,61.3,52.6,30.65,North,0,8.3,8.3,73,0.00,CLR,,0.00,WeatherDisplay:10.37,2013-01-10 14:44:00,
2013-01-10 09:49:00,61.5,52.4,30.65,ENE,68,8.1,8.1,72,0.00,CLR,,0.00,WeatherDisplay:10.37,2013-01-10 14:49:00,
2013-01-10 09:54:00,61.7,52.2,30.65,ENE,68,7.4,7.4,71,0.00,CLR,,0.00,WeatherDisplay:10.37,2013-01-10 14:54:00,
2013-01-10 09:59:00,61.9,52.4,30.65,NE,45,5.8,5.8,71,0.00,CLR,,0.00,WeatherDisplay:10.37,2013-01-10 14:59:00,
2013-01-10 10:04:00,62.1,52.9,30.65,NE,45,6.4,6.4,72,0.00,CLR,,0.00,WeatherDisplay:10.37,2013-01-10 15:04:00,
2013-01-10 10:09:00,62.2,53.1,30.65,NE,45,8.1,8.1,72,0.00,CLR,,0.00,WeatherDisplay:10.37,2013-01-10 15:09:00,
2013-01-10 10:14:00,62.6,53.1,30.65,East,90,5.8,5.8,71,0.00,CLR,,0.00,WeatherDisplay:10.37,2013-01-10 15:14:00,
2013-01-10 10:19:00,63.0,53.0,30.64,ENE,68,6.0,6.0,70,0.00,CLR,,0.00,WeatherDisplay:10.37,2013-01-10 15:19:00,
2013-01-10 10:24:00,63.5,53.5,30.64,East,90,4.6,4.9,70,0.00,CLR,,0.00,WeatherDisplay:10.37,2013-01-10 15:24:00,
2013-01-10 10:29:00,63.7,52.9,30.65,SE,135,6.9,6.9,68,0.00,CLR,,0.00,WeatherDisplay:10.37,2013-01-10 15:29:00,
2013-01-10 10:34:00,64.2,52.2,30.65,NE,45,6.0,6.0,65,0.00,CLR,,0.00,WeatherDisplay:10.37,2013-01-10 15:34:00,
2013-01-10 10:39:00,64.6,53.0,30.65,NE,45,6.9,6.9,66,0.00,CLR,,0.00,WeatherDisplay:10.37,2013-01-10 15:39:00,
2013-01-10 10:44:00,64.8,53.1,30.65,North,0,12.7,12.7,66,0.00,CLR,,0.00,WeatherDisplay:10.37,2013-01-10 15:44:00,
2013-01-10 10:49:00,64.4,52.4,30.65,East,90,8.3,8.3,65,0.00,CLR,,0.00,WeatherDisplay:10.37,2013-01-10 15:49:00,
2013-01-10 10:54:00,64.4,52.8,30.65,ENE,68,9.2,9.2,66,0.00,CLR,,0.00,WeatherDisplay:10.37,2013-01-10 15:54:00,
2013-01-10 10:59:00,64.4,52.8,30.65,NE,45,3.5,3.5,66,0.00,CLR,,0.00,WeatherDisplay:10.37,2013-01-10 15:59:00,
2013-01-10 11:04:00,64.6,52.5,30.64,ESE,112,12.7,12.7,65,0.00,CLR,,0.00,WeatherDisplay:10.37,2013-01-10 16:04:00,
2013-01-10 11:09:00,64.6,52.5,30.64,NNE,22,12.3,12.3,65,0.00,CLR,,0.00,WeatherDisplay:10.37,2013-01-10 16:09:00,
2013-01-10 11:14:00,64.4,52.8,30.64,ESE,112,10.5,10.5,66,0.00,CLR,,0.00,WeatherDisplay:10.37,2013-01-10 16:14:00,
2013-01-10 11:19:00,64.0,52.0,30.63,ENE,68,9.2,9.2,65,0.00,CLR,,0.00,WeatherDisplay:10.37,2013-01-10 16:19:00,
2013-01-10 11:24:00,63.9,51.9,30.63,ENE,68,9.2,9.2,65,0.00,CLR,,0.00,WeatherDisplay:10.37,2013-01-10 16:24:00,
2013-01-10 11:29:00,63.7,51.7,30.63,SE,135,10.5,10.5,65,0.00,CLR,,0.00,WeatherDisplay:10.37,2013-01-10 16:29:00,
2013-01-10 11:34:00,63.7,52.1,30.62,ENE,68,13.8,14.3,66,0.00,CLR,,0.00,WeatherDisplay:10.37,2013-01-10 16:34:00,
2013-01-10 11:39:00,63.5,51.1,30.62,ENE,68,8.1,8.1,64,0.00,CLR,,0.00,WeatherDisplay:10.37,2013-01-10 16:39:00,
2013-01-10 11:44:00,63.3,50.5,30.62,NNE,22,13.8,13.8,63,0.00,CLR,,0.00,WeatherDisplay:10.37,2013-01-10 16:44:00,
2013-01-10 11:49:00,63.3,49.6,30.62,ESE,112,11.8,11.8,61,0.00,CLR,,0.00,WeatherDisplay:10.37,2013-01-10 16:49:00,
2013-01-10 11:54:00,63.0,48.9,30.62,ENE,68,14.3,14.3,60,0.00,CLR,,0.00,WeatherDisplay:10.37,2013-01-10 16:54:00,
2013-01-10 11:59:00,63.0,48.4,30.61,ESE,112,9.2,9.2,59,0.00,CLR,,0.00,WeatherDisplay:10.37,2013-01-10 16:59:00,
2013-01-10 12:04:00,63.0,48.9,30.61,South,180,9.2,9.2,60,0.00,CLR,,0.00,WeatherDisplay:10.37,2013-01-10 17:04:00,
2013-01-10 12:09:00,63.3,49.2,30.61,ESE,112,8.1,10.2,60,0.00,CLR,,0.00,WeatherDisplay:10.37,2013-01-10 17:09:00,
2013-01-10 12:14:00,63.7,49.5,30.60,ENE,68,13.8,13.8,60,0.00,CLR,,0.00,WeatherDisplay:10.37,2013-01-10 17:14:00,
2013-01-10 12:19:00,63.7,48.6,30.61,NE,45,9.4,9.4,58,0.00,CLR,,0.00,WeatherDisplay:10.37,2013-01-10 17:19:00,
2013-01-10 12:24:00,63.7,48.6,30.60,East,90,9.2,9.2,58,0.00,CLR,,0.00,WeatherDisplay:10.37,2013-01-10 17:24:00,
2013-01-10 12:29:00,63.9,48.3,30.60,SE,135,11.5,11.5,57,0.00,CLR,,0.00,WeatherDisplay:10.37,2013-01-10 17:29:00,
2013-01-10 12:34:00,63.9,47.9,30.60,SSE,158,9.2,9.2,56,0.00,CLR,,0.00,WeatherDisplay:10.37,2013-01-10 17:34:00,
2013-01-10 12:39:00,63.7,47.2,30.60,NE,45,13.8,13.8,55,0.00,CLR,,0.00,WeatherDisplay:10.37,2013-01-10 17:39:00,
2013-01-10 12:44:00,63.7,47.2,30.60,East,90,11.5,11.5,55,0.00,CLR,,0.00,WeatherDisplay:10.37,2013-01-10 17:44:00,
2013-01-10 12:49:00,63.9,47.4,30.60,ESE,112,10.4,10.4,55,0.00,CLR,,0.00,WeatherDisplay:10.37,2013-01-10 17:49:00,
2013-01-10 12:54:00,64.0,47.5,30.60,ESE,112,14.3,14.3,55,0.00,CLR,,0.00,WeatherDisplay:10.37,2013-01-10 17:54:00,
2013-01-10 12:59:00,64.0,48.0,30.60,NNW,338,11.5,11.5,56,0.00,CLR,,0.00,WeatherDisplay:10.37,2013-01-10 17:59:00,
2013-01-10 13:04:00,64.2,47.7,30.60,ENE,68,10.4,10.4,55,0.00,CLR,,0.00,WeatherDisplay:10.37,2013-01-10 18:04:00,
2013-01-10 13:09:00,64.4,48.4,30.60,ENE,68,9.9,9.9,56,0.00,CLR,,0.00,WeatherDisplay:10.37,2013-01-10 18:09:00,
2013-01-10 13:14:00,64.4,47.4,30.60,ESE,112,8.1,8.1,54,0.00,CLR,,0.00,WeatherDisplay:10.37,2013-01-10 18:14:00,
2013-01-10 13:19:00,64.6,48.0,30.59,ENE,68,6.9,6.9,55,0.00,CLR,,0.00,WeatherDisplay:10.37,2013-01-10 18:19:00,
2013-01-10 13:24:00,64.8,48.2,30.59,East,90,11.4,11.4,55,0.00,CLR,,0.00,WeatherDisplay:10.37,2013-01-10 18:24:00,
2013-01-10 13:29:00,64.8,47.7,30.59,SSE,158,6.9,10.0,54,0.00,CLR,,0.00,WeatherDisplay:10.37,2013-01-10 18:29:00,
2013-01-10 13:34:00,64.8,48.2,30.59,ENE,68,9.9,9.9,55,0.00,CLR,,0.00,WeatherDisplay:10.37,2013-01-10 18:34:00,
2013-01-10 13:39:00,64.4,47.4,30.59,East,90,9.2,9.2,54,0.00,CLR,,0.00,WeatherDisplay:10.37,2013-01-10 18:39:00,
2013-01-10 13:44:00,64.4,47.4,30.59,NNW,338,4.6,4.6,54,0.00,CLR,,0.00,WeatherDisplay:10.37,2013-01-10 18:44:00,
2013-01-10 13:49:00,64.4,47.4,30.59,SSE,158,4.6,4.6,54,0.00,CLR,,0.00,WeatherDisplay:10.37,2013-01-10 18:49:00,
2013-01-10 13:54:00,64.4,47.4,30.59,ESE,112,8.1,8.1,54,0.00,CLR,,0.00,WeatherDisplay:10.37,2013-01-10 18:54:00,
2013-01-10 13:59:00,64.4,47.4,30.59,NNE,22,11.5,11.5,54,0.00,CLR,,0.00,WeatherDisplay:10.37,2013-01-10 18:59:00,
2013-01-10 14:04:00,64.2,47.2,30.59,ENE,68,10.4,10.4,54,0.00,CLR,,0.00,WeatherDisplay:10.37,2013-01-10 19:04:00,
2013-01-10 14:09:00,64.0,47.1,30.59,East,90,9.2,9.2,54,0.00,CLR,,0.00,WeatherDisplay:10.37,2013-01-10 19:09:00,
2013-01-10 14:14:00,64.2,47.7,30.60,ENE,68,7.1,7.1,55,0.00,CLR,,0.00,WeatherDisplay:10.37,2013-01-10 19:14:00,
2013-01-10 14:19:00,64.4,47.4,30.60,NW,315,9.2,9.2,54,0.00,CLR,,0.00,WeatherDisplay:10.37,2013-01-10 19:19:00,
2013-01-10 14:24:00,64.4,47.4,30.60,ENE,68,8.1,8.1,54,0.00,CLR,,0.00,WeatherDisplay:10.37,2013-01-10 19:24:00,
2013-01-10 14:29:00,64.6,47.1,30.60,East,90,10.4,10.4,53,0.00,CLR,,0.00,WeatherDisplay:10.37,2013-01-10 19:29:00,
2013-01-10 14:34:00,64.4,46.9,30.60,North,0,8.1,8.1,53,0.00,CLR,,0.00,WeatherDisplay:10.37,2013-01-10 19:34:00,
2013-01-10 14:39:00,64.4,47.4,30.60,SE,135,6.0,6.0,54,0.00,CLR,,0.00,WeatherDisplay:10.37,2013-01-10 19:39:00,
2013-01-10 14:44:00,64.4,47.4,30.61,ESE,112,6.9,6.9,54,0.00,CLR,,0.00,WeatherDisplay:10.37,2013-01-10 19:44:00,
2013-01-10 14:50:00,64.4,47.4,30.61,ESE,112,6.9,6.9,54,0.00,CLR,,0.00,WeatherDisplay:10.37,2013-01-10 19:50:00,
2013-01-10 14:55:00,64.4,47.4,30.61,ENE,68,7.8,7.8,54,0.00,CLR,,0.00,WeatherDisplay:10.37,2013-01-10 19:55:00,
2013-01-10 15:00:00,64.6,47.1,30.61,WSW,248,8.1,8.1,53,0.00,CLR,,0.00,WeatherDisplay:10.37,2013-01-10 20:00:00,
2013-01-10 15:05:00,64.6,47.6,30.61,East,90,5.8,7.6,54,0.00,CLR,,0.00,WeatherDisplay:10.37,2013-01-10 20:05:00,
2013-01-10 15:10:00,64.6,47.1,30.61,ENE,74,6.0,9.0,53,0.00,CLR,CLR,0.00,WeatherDisplay:10.37,2013-01-10 20:10:00,
2013-01-10 15:15:00,64.4,46.4,30.61,East,79,6.0,7.0,52,0.00,CLR,CLR,0.00,WeatherDisplay:10.37,2013-01-10 20:15:00,
2013-01-10 15:20:00,64.2,47.2,30.61,NNE,22,9.2,9.2,54,0.00,CLR,,0.00,WeatherDisplay:10.37,2013-01-10 20:20:00,
2013-01-10 15:25:00,64.0,46.1,30.61,East,93,8.0,9.0,52,0.00,CLR,CLR,0.00,WeatherDisplay:10.37,2013-01-10 20:25:00,
2013-01-10 15:31:00,63.7,46.7,30.61,NE,45,6.2,6.2,54,0.00,CLR,,0.00,WeatherDisplay:10.37,2013-01-10 20:31:00,
2013-01-10 15:36:00,63.3,46.4,30.61,ESE,112,6.9,6.9,54,0.00,CLR,,0.00,WeatherDisplay:10.37,2013-01-10 20:36:00,
2013-01-10 15:41:00,63.1,46.2,30.61,ESE,112,6.9,6.9,54,0.00,CLR,,0.00,WeatherDisplay:10.37,2013-01-10 20:41:00,
2013-01-10 15:46:00,63.3,46.9,30.61,ESE,112,8.5,8.5,55,0.00,CLR,,0.00,WeatherDisplay:10.37,2013-01-10 20:46:00,
2013-01-10 15:51:00,63.1,46.7,30.61,NE,45,5.8,5.8,55,0.00,CLR,,0.00,WeatherDisplay:10.37,2013-01-10 20:51:00,
2013-01-10 15:56:00,63.1,46.2,30.61,ENE,68,8.1,8.1,54,0.00,CLR,,0.00,WeatherDisplay:10.37,2013-01-10 20:56:00,
2013-01-10 16:01:00,63.0,45.6,30.61,ENE,68,9.2,9.2,53,0.00,CLR,,0.00,WeatherDisplay:10.37,2013-01-10 21:01:00,
2013-01-10 16:06:00,63.0,46.0,30.60,SE,135,9.4,9.4,54,0.00,CLR,,0.00,WeatherDisplay:10.37,2013-01-10 21:06:00,
2013-01-10 16:11:00,62.8,45.4,30.60,South,180,5.8,5.8,53,0.00,CLR,,0.00,WeatherDisplay:10.37,2013-01-10 21:11:00,
2013-01-10 16:16:00,62.6,44.7,30.60,East,90,6.9,6.9,52,0.00,CLR,,0.00,WeatherDisplay:10.37,2013-01-10 21:16:00,
2013-01-10 16:21:00,62.2,44.4,30.60,WSW,248,4.6,5.2,52,0.00,CLR,,0.00,WeatherDisplay:10.37,2013-01-10 21:21:00,
2013-01-10 16:26:00,62.2,44.9,30.61,NNE,22,4.6,4.6,53,0.00,CLR,,0.00,WeatherDisplay:10.37,2013-01-10 21:26:00,
2013-01-10 16:31:00,61.7,43.9,30.61,ESE,112,6.9,6.9,52,0.00,CLR,,0.00,WeatherDisplay:10.37,2013-01-10 21:31:00,
2013-01-10 16:36:00,61.3,44.5,30.61,NE,45,2.3,2.3,54,0.00,CLR,,0.00,WeatherDisplay:10.37,2013-01-10 21:36:00,
2013-01-10 16:41:00,61.2,43.9,30.61,NNW,338,6.9,6.9,53,0.00,CLR,,0.00,WeatherDisplay:10.37,2013-01-10 21:41:00,
2013-01-10 16:46:00,60.6,43.4,30.61,ENE,68,5.8,5.8,53,0.00,CLR,,0.00,WeatherDisplay:10.37,2013-01-10 21:46:00,
2013-01-10 16:51:00,60.3,43.5,30.61,WSW,248,3.5,3.5,54,0.00,CLR,,0.00,WeatherDisplay:10.37,2013-01-10 21:51:00,
2013-01-10 16:56:00,60.1,43.9,30.61,East,90,3.5,3.5,55,0.00,CLR,,0.00,WeatherDisplay:10.37,2013-01-10 21:56:00,
2013-01-10 17:01:00,59.9,43.7,30.61,East,90,4.6,4.6,55,0.00,CLR,,0.00,WeatherDisplay:10.37,2013-01-10 22:01:00,
2013-01-10 17:06:00,59.5,42.9,30.61,SE,135,5.8,5.8,54,0.00,CLR,,0.00,WeatherDisplay:10.37,2013-01-10 22:06:00,
2013-01-10 17:11:00,59.2,42.5,30.61,ENE,68,6.0,6.0,54,0.00,CLR,,0.00,WeatherDisplay:10.37,2013-01-10 22:11:00,
2013-01-10 17:16:00,58.8,42.7,30.61,ESE,112,3.5,3.5,55,0.00,CLR,,0.00,WeatherDisplay:10.37,2013-01-10 22:16:00,
2013-01-10 17:21:00,58.5,42.3,30.61,East,90,3.5,3.5,55,0.00,CLR,,0.00,WeatherDisplay:10.37,2013-01-10 22:21:00,
2013-01-10 17:26:00,58.3,42.6,30.61,SE,135,2.3,2.3,56,0.00,CLR,,0.00,WeatherDisplay:10.37,2013-01-10 22:26:00,
2013-01-10 17:31:00,58.1,42.5,30.60,NE,45,2.3,2.3,56,0.00,CLR,,0.00,WeatherDisplay:10.37,2013-01-10 22:31:00,
2013-01-10 17:36:00,57.9,42.8,30.61,East,90,3.5,3.5,57,0.00,CLR,,0.00,WeatherDisplay:10.37,2013-01-10 22:36:00,
2013-01-10 17:41:00,57.7,42.6,30.61,ENE,68,2.9,2.9,57,0.00,CLR,,0.00,WeatherDisplay:10.37,2013-01-10 22:41:00,
2013-01-10 17:46:00,57.4,42.3,30.61,ESE,112,3.5,3.5,57,0.00,CLR,,0.00,WeatherDisplay:10.37,2013-01-10 22:46:00,
2013-01-10 17:51:00,57.2,42.1,30.61,NE,45,3.5,3.5,57,0.00,CLR,,0.00,WeatherDisplay:10.37,2013-01-10 22:51:00,
2013-01-10 17:57:00,57.0,42.4,30.61,ENE,68,5.8,5.8,58,0.00,CLR,,0.00,WeatherDisplay:10.37,2013-01-10 22:57:00,
2013-01-10 18:02:00,56.8,42.2,30.61,ESE,112,2.6,2.6,58,0.00,CLR,,0.00,WeatherDisplay:10.37,2013-01-10 23:02:00,
2013-01-10 18:07:00,56.5,41.9,30.61,East,90,2.4,2.4,58,0.00,CLR,,0.00,WeatherDisplay:10.37,2013-01-10 23:07:00,
2013-01-10 18:12:00,56.5,42.3,30.61,East,90,3.5,3.5,59,0.00,CLR,,0.00,WeatherDisplay:10.37,2013-01-10 23:12:00,
2013-01-10 18:17:00,56.1,42.0,30.61,SE,135,4.6,4.6,59,0.00,CLR,,0.00,WeatherDisplay:10.37,2013-01-10 23:17:00,
2013-01-10 18:22:00,55.9,42.2,30.61,ENE,68,5.4,5.4,60,0.00,CLR,,0.00,WeatherDisplay:10.37,2013-01-10 23:22:00,
2013-01-10 18:27:00,55.8,42.1,30.61,SE,135,5.8,5.8,60,0.00,CLR,,0.00,WeatherDisplay:10.37,2013-01-10 23:27:00,
2013-01-10 18:32:00,55.8,42.5,30.61,East,90,3.5,4.5,61,0.00,CLR,,0.00,WeatherDisplay:10.37,2013-01-10 23:32:00,
2013-01-10 18:37:00,55.6,42.3,30.61,ESE,112,4.6,4.6,61,0.00,CLR,,0.00,WeatherDisplay:10.37,2013-01-10 23:37:00,
2013-01-10 18:42:00,55.6,42.8,30.61,ENE,68,2.3,2.3,62,0.00,CLR,,0.00,WeatherDisplay:10.37,2013-01-10 23:42:00,
2013-01-10 18:48:00,55.4,43.0,30.61,NE,45,5.2,5.2,63,0.00,CLR,,0.00,WeatherDisplay:10.37,2013-01-10 23:48:00,
2013-01-10 18:53:00,55.2,42.8,30.62,ENE,68,2.3,4.3,63,0.00,CLR,,0.00,WeatherDisplay:10.37,2013-01-10 23:53:00,
2013-01-10 18:58:00,55.0,42.7,30.62,North,0,2.6,2.6,63,0.00,CLR,,0.00,WeatherDisplay:10.37,2013-01-10 23:58:00,
2013-01-10 19:03:00,55.0,43.1,30.61,ENE,68,2.9,2.9,64,0.00,CLR,,0.00,WeatherDisplay:10.37,2013-01-11 00:03:00,
2013-01-10 19:08:00,54.9,42.9,30.61,ENE,68,1.6,1.6,64,0.00,CLR,,0.00,WeatherDisplay:10.37,2013-01-11 00:08:00,
2013-01-10 19:13:00,54.7,42.7,30.61,ESE,112,2.3,2.3,64,0.00,CLR,,0.00,WeatherDisplay:10.37,2013-01-11 00:13:00,
2013-01-10 19:18:00,54.5,42.6,30.61,ENE,68,3.5,3.5,64,0.00,CLR,,0.00,WeatherDisplay:10.37,2013-01-11 00:18:00,
2013-01-10 19:23:00,54.3,42.0,30.61,NE,45,3.5,3.5,63,0.00,CLR,,0.00,WeatherDisplay:10.37,2013-01-11 00:23:00,
2013-01-10 19:28:00,54.3,42.0,30.61,North,0,4.6,4.6,63,0.00,CLR,,0.00,WeatherDisplay:10.37,2013-01-11 00:28:00,
2013-01-10 19:33:00,54.3,42.0,30.61,ENE,68,3.5,3.5,63,0.00,CLR,,0.00,WeatherDisplay:10.37,2013-01-11 00:33:00,
2013-01-10 19:38:00,54.1,41.4,30.61,NE,45,4.6,4.6,62,0.00,CLR,,0.00,WeatherDisplay:10.37,2013-01-11 00:38:00,
2013-01-10 19:43:00,54.0,41.2,30.61,ENE,68,4.6,4.6,62,0.00,CLR,,0.00,WeatherDisplay:10.37,2013-01-11 00:43:00,
2013-01-10 19:48:00,54.1,41.0,30.61,NE,45,4.6,4.6,61,0.00,CLR,,0.00,WeatherDisplay:10.37,2013-01-11 00:48:00,
2013-01-10 19:53:00,54.1,40.6,30.62,ESE,112,4.6,4.6,60,0.00,CLR,,0.00,WeatherDisplay:10.37,2013-01-11 00:53:00,
2013-01-10 19:58:00,54.1,38.8,30.62,East,90,9.2,9.2,56,0.00,CLR,,0.00,WeatherDisplay:10.37,2013-01-11 00:58:00,
2013-01-10 20:03:00,54.1,38.8,30.61,ENE,68,4.6,4.6,56,0.00,CLR,,0.00,WeatherDisplay:10.37,2013-01-11 01:03:00,
2013-01-10 20:08:00,54.1,38.8,30.61,NE,45,5.8,5.8,56,0.00,CLR,,0.00,WeatherDisplay:10.37,2013-01-11 01:08:00,
2013-01-10 20:13:00,54.1,38.8,30.62,East,90,3.5,3.5,56,0.00,OVC,,0.00,WeatherDisplay:10.37,2013-01-11 01:13:00,
2013-01-10 20:18:00,54.1,38.8,30.62,NE,45,4.7,4.7,56,0.00,OVC,,0.00,WeatherDisplay:10.37,2013-01-11 01:18:00,
2013-01-10 20:23:00,54.1,38.8,30.62,NNE,22,2.3,4.0,56,0.00,OVC,,0.00,WeatherDisplay:10.37,2013-01-11 01:23:00,
2013-01-10 20:28:00,54.1,38.8,30.61,NE,45,5.8,5.8,56,0.00,OVC,,0.00,WeatherDisplay:10.37,2013-01-11 01:28:00,
2013-01-10 20:33:00,54.1,38.8,30.61,ENE,68,4.6,4.6,56,0.00,OVC,,0.00,WeatherDisplay:10.37,2013-01-11 01:33:00,
2013-01-10 20:38:00,54.1,37.8,30.61,NE,45,5.8,5.8,54,0.00,OVC,,0.00,WeatherDisplay:10.37,2013-01-11 01:38:00,
2013-01-10 20:43:00,54.1,38.3,30.62,NNE,22,4.6,4.6,55,0.00,OVC,,0.00,WeatherDisplay:10.37,2013-01-11 01:43:00,
2013-01-10 20:48:00,54.1,38.3,30.61,NNE,22,3.5,3.5,55,0.00,OVC,,0.00,WeatherDisplay:10.37,2013-01-11 01:48:00,
2013-01-10 20:53:00,54.0,38.6,30.61,East,90,4.6,4.6,56,0.00,OVC,,0.00,WeatherDisplay:10.37,2013-01-11 01:53:00,
2013-01-10 20:58:00,54.0,38.1,30.61,NNE,22,5.8,5.8,55,0.00,OVC,,0.00,WeatherDisplay:10.37,2013-01-11 01:58:00,
2013-01-10 21:03:00,53.8,38.4,30.61,ENE,68,3.8,3.8,56,0.00,OVC,,0.00,WeatherDisplay:10.37,2013-01-11 02:03:00,
2013-01-10 21:08:00,53.8,38.4,30.60,ENE,68,4.0,4.0,56,0.00,OVC,,0.00,WeatherDisplay:10.37,2013-01-11 02:08:00,
2013-01-10 21:13:00,53.6,38.7,30.61,NE,45,3.1,3.1,57,0.00,BKN,,0.00,WeatherDisplay:10.37,2013-01-11 02:13:00,
2013-01-10 21:18:00,53.6,38.7,30.60,ENE,68,4.6,4.6,57,0.00,BKN,,0.00,WeatherDisplay:10.37,2013-01-11 02:18:00,
2013-01-10 21:23:00,53.4,39.0,30.60,East,90,4.6,4.6,58,0.00,BKN,,0.00,WeatherDisplay:10.37,2013-01-11 02:23:00,
2013-01-10 21:28:00,53.4,39.0,30.60,North,0,4.6,4.6,58,0.00,BKN,,0.00,WeatherDisplay:10.37,2013-01-11 02:28:00,
2013-01-10 21:33:00,53.2,39.3,30.60,East,90,4.9,4.9,59,0.00,BKN,,0.00,WeatherDisplay:10.37,2013-01-11 02:33:00,
2013-01-10 21:38:00,53.2,39.3,30.60,ENE,68,4.0,4.0,59,0.00,BKN,,0.00,WeatherDisplay:10.37,2013-01-11 02:38:00,
2013-01-10 21:43:00,53.2,39.7,30.60,ENE,68,5.8,5.8,60,0.00,BKN,,0.00,WeatherDisplay:10.37,2013-01-11 02:43:00,
2013-01-10 21:48:00,53.1,39.5,30.60,ENE,68,5.2,5.2,60,0.00,BKN,,0.00,WeatherDisplay:10.37,2013-01-11 02:48:00,
2013-01-10 21:54:00,53.1,39.5,30.60,ENE,68,3.5,3.5,60,0.00,BKN,,0.00,WeatherDisplay:10.37,2013-01-11 02:54:00,
2013-01-10 21:59:00,53.1,40.0,30.60,NE,45,4.6,4.6,61,0.00,BKN,,0.00,WeatherDisplay:10.37,2013-01-11 02:59:00,
2013-01-10 22:04:00,52.9,39.8,30.60,ESE,112,4.6,4.6,61,0.00,OVC,,0.00,WeatherDisplay:10.37,2013-01-11 03:04:00,
2013-01-10 22:09:00,52.9,40.2,30.60,ESE,112,4.6,4.6,62,0.00,OVC,,0.00,WeatherDisplay:10.37,2013-01-11 03:09:00,
2013-01-10 22:14:00,52.9,40.2,30.60,ENE,68,6.9,6.9,62,0.00,OVC,,0.00,WeatherDisplay:10.37,2013-01-11 03:14:00,
2013-01-10 22:19:00,52.7,40.5,30.60,ENE,68,6.9,6.9,63,0.00,OVC,,0.00,WeatherDisplay:10.37,2013-01-11 03:19:00,
2013-01-10 22:24:00,52.7,40.5,30.59,East,90,6.9,7.8,63,0.00,OVC,,0.00,WeatherDisplay:10.37,2013-01-11 03:24:00,
2013-01-10 22:29:00,52.5,40.7,30.59,NE,45,3.5,3.5,64,0.00,OVC,,0.00,WeatherDisplay:10.37,2013-01-11 03:29:00,
2013-01-10 22:34:00,52.5,40.7,30.59,NNE,22,4.6,4.6,64,0.00,OVC,,0.00,WeatherDisplay:10.37,2013-01-11 03:34:00,
2013-01-10 22:39:00,52.5,41.1,30.59,NNE,22,4.6,4.6,65,0.00,OVC,,0.00,WeatherDisplay:10.37,2013-01-11 03:39:00,
2013-01-10 22:44:00,52.2,40.7,30.59,ENE,68,5.8,5.8,65,0.00,OVC,,0.00,WeatherDisplay:10.37,2013-01-11 03:44:00,
2013-01-10 22:49:00,52.2,40.7,30.59,SE,135,3.6,3.6,65,0.00,OVC,,0.00,WeatherDisplay:10.37,2013-01-11 03:49:00,
2013-01-10 22:54:00,52.2,41.1,30.58,NE,45,4.6,4.6,66,0.00,OVC,,0.00,WeatherDisplay:10.37,2013-01-11 03:54:00,
2013-01-10 22:59:00,52.2,41.1,30.58,NNE,22,3.5,3.5,66,0.00,OVC,,0.00,WeatherDisplay:10.37,2013-01-11 03:59:00,
2013-01-10 23:04:00,52.2,41.5,30.58,NW,315,4.6,4.6,67,0.00,OVC,,0.00,WeatherDisplay:10.37,2013-01-11 04:04:00,
2013-01-10 23:09:00,52.0,41.4,30.58,NNE,22,3.5,3.8,67,0.00,OVC,,0.00,WeatherDisplay:10.37,2013-01-11 04:09:00,
2013-01-10 23:14:00,52.0,41.4,30.58,East,90,4.0,4.0,67,0.00,OVC,,0.00,WeatherDisplay:10.37,2013-01-11 04:14:00,
2013-01-10 23:19:00,51.8,41.2,30.58,NNE,22,4.6,4.6,67,0.00,OVC,,0.00,WeatherDisplay:10.37,2013-01-11 04:19:00,
2013-01-10 23:24:00,51.8,41.2,30.58,ENE,68,3.5,4.0,67,0.00,OVC,,0.00,WeatherDisplay:10.37,2013-01-11 04:24:00,
2013-01-10 23:29:00,51.6,41.4,30.58,NE,45,2.3,2.3,68,0.00,OVC,,0.00,WeatherDisplay:10.37,2013-01-11 04:29:00,
2013-01-10 23:34:00,51.4,41.2,30.58,ENE,68,2.3,2.3,68,0.00,OVC,,0.00,WeatherDisplay:10.37,2013-01-11 04:34:00,
2013-01-10 23:39:00,51.4,41.2,30.58,NNE,22,2.3,2.4,68,0.00,OVC,,0.00,WeatherDisplay:10.37,2013-01-11 04:39:00,
2013-01-10 23:44:00,51.4,41.2,30.58,East,90,4.7,4.7,68,0.00,OVC,,0.00,WeatherDisplay:10.37,2013-01-11 04:44:00,
2013-01-10 23:49:00,51.3,41.1,30.58,NE,45,2.3,3.6,68,0.00,OVC,,0.00,WeatherDisplay:10.37,2013-01-11 04:49:00,
2013-01-10 23:54:00,51.1,40.9,30.58,NE,45,2.3,2.3,68,0.00,OVC,,0.00,WeatherDisplay:10.37,2013-01-11 04:54:00,
2013-01-10 23:59:00,51.1,40.9,30.58,NE,45,2.3,2.3,68,0.00,OVC,,0.00,WeatherDisplay:10.37,2013-01-11 04:59:00,